TVS8QV LGZA-LKTB

Flight info

Callsign TVS8QV
Flight time 2h 15m
Altitude 24000
Route OSDES Y302 GARTA/N0452F320 UV60 YNN UL604 DIMIS/N0451F340 DCT ALELU DCT PARAK DCT PATAK DCT ABITU/N0403F240 P41 MAVOR
Aircraft B738/M-SDE3FGHIJ1RWXY/LB1

Departure

Time 2026-05-06 14:54
Airport Zakynthos International Airport Dionysios Solomos (LGZA)

Arrival

Time 2026-05-06 17:09
Airport Brno-Tuřany Airport (LKTB)
Time Latitude Longitude Altitude Speed Heading
2026-05-06 14:37 37.75448 20.88505 19 ft 0 kts 73°
2026-05-06 14:46 37.75445 20.88493 21 ft 4 kts 71°
2026-05-06 14:46 37.75435 20.88463 20 ft 4 kts 57°
2026-05-06 14:46 37.75418 20.88438 20 ft 4 kts 30°
2026-05-06 14:46 37.75398 20.88432 21 ft 1 kts 343°
2026-05-06 14:49 37.75404 20.88429 19 ft 3 kts 343°
2026-05-06 14:49 37.75449 20.88408 20 ft 8 kts 329°
2026-05-06 14:50 37.75476 20.88351 21 ft 8 kts 286°
2026-05-06 14:50 37.75499 20.88292 20 ft 7 kts 308°
2026-05-06 14:50 37.75545 20.88258 20 ft 9 kts 342°
2026-05-06 14:50 37.75608 20.88234 21 ft 9 kts 343°
2026-05-06 14:51 37.75669 20.88210 22 ft 9 kts 342°
2026-05-06 14:51 37.75730 20.88188 23 ft 9 kts 345°
2026-05-06 14:51 37.75788 20.88166 23 ft 9 kts 343°
2026-05-06 14:51 37.75844 20.88146 21 ft 8 kts 344°
2026-05-06 14:52 37.75899 20.88125 21 ft 8 kts 343°
2026-05-06 14:52 37.75959 20.88103 20 ft 10 kts 343°
2026-05-06 14:52 37.76023 20.88107 19 ft 8 kts 20°
2026-05-06 14:52 37.76063 20.88101 20 ft 6 kts 318°
2026-05-06 14:53 37.76052 20.88068 19 ft 4 kts 178°
2026-05-06 14:53 37.76043 20.88072 19 ft 0 kts 163°
2026-05-06 14:53 37.76026 20.88078 19 ft 21 kts 163°
2026-05-06 14:54 37.75607 20.88234 21 ft 104 kts 163°
2026-05-06 14:54 37.74670 20.88584 46 ft 172 kts 164°
2026-05-06 14:54 37.73482 20.89014 929 ft 173 kts 165°
2026-05-06 14:54 37.72306 20.89435 1856 ft 180 kts 165°
2026-05-06 14:55 37.71053 20.89895 2466 ft 195 kts 164°
2026-05-06 14:55 37.69713 20.90386 3084 ft 209 kts 165°
2026-05-06 14:55 37.68251 20.90894 3512 ft 223 kts 165°
2026-05-06 14:55 37.66730 20.91425 4106 ft 230 kts 165°
2026-05-06 14:56 37.65151 20.91993 4699 ft 240 kts 164°
2026-05-06 14:56 37.63576 20.92563 5568 ft 237 kts 164°
2026-05-06 14:56 37.61982 20.93137 6361 ft 239 kts 165°
2026-05-06 14:56 37.60366 20.93717 7058 ft 243 kts 165°
2026-05-06 14:57 37.58723 20.94306 7748 ft 248 kts 165°
2026-05-06 14:57 37.56977 20.94545 8116 ft 265 kts 193°
2026-05-06 14:57 37.55302 20.93484 8440 ft 279 kts 226°
2026-05-06 14:57 37.54227 20.91464 9104 ft 281 kts 253°
2026-05-06 14:58 37.53996 20.89059 9939 ft 277 kts 280°
2026-05-06 14:58 37.54671 20.86831 10554 ft 284 kts 305°
2026-05-06 14:58 37.56162 20.85067 10733 ft 310 kts 329°
2026-05-06 14:58 37.58277 20.84171 10899 ft 336 kts 353°
2026-05-06 14:59 37.60663 20.84503 11258 ft 355 kts 12°
2026-05-06 14:59 37.63071 20.85314 11868 ft 361 kts 12°
2026-05-06 14:59 37.63343 20.85405 11952 ft 361 kts 12°
2026-05-06 15:00 37.63692 20.85522 12048 ft 362 kts 12°
2026-05-06 15:00 37.66141 20.86298 12767 ft 364 kts 10°
2026-05-06 15:00 37.68626 20.86993 13460 ft 368 kts
2026-05-06 15:00 37.71146 20.87636 14108 ft 371 kts
2026-05-06 15:01 37.73685 20.88266 14719 ft 374 kts
2026-05-06 15:01 37.76266 20.88779 15318 ft 377 kts
2026-05-06 15:01 37.78893 20.89007 15934 ft 379 kts
2026-05-06 15:01 37.81542 20.89133 16541 ft 383 kts 359°
2026-05-06 15:02 37.84213 20.89242 17124 ft 386 kts 359°
2026-05-06 15:02 37.86877 20.89364 17691 ft 390 kts 360°
2026-05-06 15:02 37.89603 20.89509 18260 ft 394 kts
2026-05-06 15:02 37.92352 20.89671 18768 ft 397 kts
2026-05-06 15:03 37.95124 20.89846 19259 ft 400 kts
2026-05-06 15:03 37.97917 20.90028 19767 ft 403 kts
2026-05-06 15:03 38.00732 20.90216 20259 ft 407 kts
2026-05-06 15:03 38.03568 20.90406 20744 ft 410 kts
2026-05-06 15:04 38.06427 20.90598 21220 ft 413 kts
2026-05-06 15:04 38.09263 20.90788 21675 ft 416 kts
2026-05-06 15:04 38.09592 20.90810 21727 ft 416 kts
2026-05-06 15:05 38.10333 20.90860 21840 ft 417 kts
2026-05-06 15:05 38.13241 20.91055 22291 ft 420 kts
2026-05-06 15:05 38.16168 20.91251 22777 ft 422 kts
2026-05-06 15:05 38.19112 20.91449 23218 ft 425 kts
2026-05-06 15:06 38.22069 20.91647 23640 ft 428 kts
2026-05-06 15:06 38.25015 20.91845 24000 ft 431 kts
2026-05-06 15:06 38.28011 20.92047 24381 ft 432 kts
2026-05-06 15:06 38.31025 20.92250 24760 ft 434 kts
2026-05-06 15:07 38.34050 20.92454 25128 ft 436 kts
2026-05-06 15:07 38.37082 20.92658 25532 ft 437 kts
2026-05-06 15:07 38.40128 20.92857 25897 ft 439 kts
2026-05-06 15:07 38.43185 20.93053 26222 ft 442 kts 360°
2026-05-06 15:08 38.46264 20.93249 26543 ft 444 kts 360°
2026-05-06 15:08 38.49360 20.93448 26872 ft 446 kts 360°
2026-05-06 15:08 38.52421 20.93646 27191 ft 448 kts 360°
2026-05-06 15:08 38.55541 20.93849 27519 ft 450 kts 360°
2026-05-06 15:09 38.58671 20.94052 27817 ft 452 kts 360°
2026-05-06 15:09 38.61824 20.94260 28110 ft 454 kts 360°
2026-05-06 15:09 38.62136 20.94281 28141 ft 454 kts 360°
2026-05-06 15:10 38.62625 20.94314 28189 ft 455 kts 360°
2026-05-06 15:10 38.65757 20.94529 28482 ft 457 kts 360°
2026-05-06 15:10 38.68938 20.94750 28770 ft 459 kts 360°
2026-05-06 15:10 38.72131 20.94972 29042 ft 461 kts 360°
2026-05-06 15:11 38.75342 20.95194 29388 ft 462 kts 360°
2026-05-06 15:11 38.78539 20.95417 29834 ft 460 kts 360°
2026-05-06 15:11 38.81731 20.95639 30266 ft 458 kts 360°
2026-05-06 15:11 38.84911 20.95859 30659 ft 456 kts 359°
2026-05-06 15:12 38.88072 20.96078 31017 ft 455 kts 359°
2026-05-06 15:12 38.91192 20.96293 31349 ft 454 kts 359°
2026-05-06 15:12 38.94341 20.96512 31692 ft 453 kts 359°
2026-05-06 15:12 38.97484 20.96714 32033 ft 451 kts 357°
2026-05-06 15:13 39.00588 20.96523 32348 ft 445 kts 348°
2026-05-06 15:13 39.03636 20.95914 32708 ft 442 kts 347°
2026-05-06 15:13 39.06662 20.95252 33056 ft 440 kts 346°
2026-05-06 15:13 39.09679 20.94591 33376 ft 439 kts 346°
2026-05-06 15:14 39.12688 20.93947 33699 ft 438 kts 347°
2026-05-06 15:14 39.15692 20.93321 34041 ft 436 kts 347°
2026-05-06 15:14 39.15933 20.93271 34067 ft 436 kts 347°
2026-05-06 15:15 39.16741 20.93105 34145 ft 436 kts 347°
2026-05-06 15:15 39.19738 20.92494 34394 ft 436 kts 347°
2026-05-06 15:15 39.22736 20.91885 34531 ft 438 kts 347°
2026-05-06 15:16 39.28790 20.90656 34853 ft 440 kts 347°
2026-05-06 15:16 39.31762 20.90051 35170 ft 437 kts 347°
2026-05-06 15:16 39.34769 20.89434 35408 ft 437 kts 347°
2026-05-06 15:16 39.37776 20.88811 35586 ft 438 kts 347°
2026-05-06 15:17 39.40788 20.88185 35784 ft 439 kts 347°
2026-05-06 15:17 39.43795 20.87560 35967 ft 438 kts 347°
2026-05-06 15:17 39.46811 20.86933 36100 ft 439 kts 347°
2026-05-06 15:18 39.52858 20.85679 36104 ft 441 kts 346°
2026-05-06 15:18 39.58863 20.84426 36093 ft 439 kts 346°
2026-05-06 15:19 39.64876 20.83171 36116 ft 437 kts 346°
2026-05-06 15:19 39.68123 20.82486 36113 ft 436 kts 345°
2026-05-06 15:20 39.69000 20.82259 36098 ft 434 kts 342°
2026-05-06 15:20 39.74521 20.79520 36111 ft 426 kts 330°
2026-05-06 15:21 39.79878 20.76196 36100 ft 427 kts 330°
2026-05-06 15:21 39.85246 20.72902 36097 ft 427 kts 331°
2026-05-06 15:22 39.90635 20.69630 36099 ft 428 kts 331°
2026-05-06 15:22 39.96006 20.66373 36086 ft 429 kts 331°
2026-05-06 15:23 40.01414 20.63087 36063 ft 428 kts 331°
2026-05-06 15:23 40.06819 20.59837 36073 ft 429 kts 334°
2026-05-06 15:24 40.12621 20.57775 36073 ft 435 kts 343°
2026-05-06 15:24 40.15783 20.56867 36080 ft 435 kts 343°
2026-05-06 15:25 40.16462 20.56674 36080 ft 435 kts 343°
2026-05-06 15:25 40.22384 20.54968 36075 ft 436 kts 343°
2026-05-06 15:26 40.28311 20.53221 36058 ft 437 kts 343°
2026-05-06 15:26 40.34200 20.51463 36067 ft 437 kts 343°
2026-05-06 15:27 40.40119 20.49687 36057 ft 436 kts 343°
2026-05-06 15:27 40.46024 20.47907 36062 ft 436 kts 343°
2026-05-06 15:28 40.51941 20.46117 36052 ft 437 kts 343°
2026-05-06 15:28 40.57820 20.44339 36075 ft 436 kts 343°
2026-05-06 15:29 40.63736 20.42549 36062 ft 437 kts 343°
2026-05-06 15:29 40.66900 20.41591 36064 ft 437 kts 343°
2026-05-06 15:30 40.67818 20.41313 36072 ft 437 kts 343°
2026-05-06 15:30 40.73749 20.39511 36067 ft 437 kts 343°
2026-05-06 15:31 40.79640 20.37718 36075 ft 438 kts 343°
2026-05-06 15:31 40.85581 20.35908 36076 ft 438 kts 343°
2026-05-06 15:32 40.94496 20.33186 36067 ft 439 kts 343°
2026-05-06 15:32 41.00437 20.31367 36074 ft 439 kts 343°
2026-05-06 15:33 41.06340 20.29555 36082 ft 438 kts 343°
2026-05-06 15:33 41.12285 20.27729 36064 ft 439 kts 343°
2026-05-06 15:34 41.18227 20.25899 36074 ft 438 kts 343°
2026-05-06 15:34 41.18388 20.25850 36070 ft 438 kts 343°
2026-05-06 15:35 41.22102 20.24704 36076 ft 437 kts 342°
2026-05-06 15:35 41.28007 20.22883 36081 ft 435 kts 342°
2026-05-06 15:36 41.33908 20.21056 36081 ft 435 kts 342°
2026-05-06 15:36 41.39810 20.19226 36085 ft 436 kts 342°
2026-05-06 15:37 41.45681 20.17402 36079 ft 436 kts 342°
2026-05-06 15:37 41.51596 20.15562 36079 ft 437 kts 342°
2026-05-06 15:38 41.57525 20.13713 36086 ft 438 kts 342°
2026-05-06 15:38 41.63460 20.11860 36089 ft 439 kts 342°
2026-05-06 15:39 41.69371 20.10010 36083 ft 439 kts 342°
2026-05-06 15:39 41.69519 20.09964 36082 ft 439 kts 342°
2026-05-06 15:40 41.73530 20.08707 36080 ft 439 kts 342°
2026-05-06 15:40 41.79483 20.06839 36086 ft 439 kts 342°
2026-05-06 15:41 41.85422 20.04972 36093 ft 439 kts 342°
2026-05-06 15:41 41.91334 20.03109 36081 ft 439 kts 342°
2026-05-06 15:42 41.97287 20.01229 36084 ft 440 kts 342°
2026-05-06 15:42 42.03241 19.99345 36078 ft 440 kts 342°
2026-05-06 15:43 42.09190 19.97464 36082 ft 439 kts 342°
2026-05-06 15:43 42.15088 19.95588 36076 ft 439 kts 342°
2026-05-06 15:44 42.21034 19.93695 36077 ft 440 kts 342°
2026-05-06 15:44 42.21141 19.93661 36076 ft 440 kts 342°
2026-05-06 15:45 42.25116 19.92394 36089 ft 439 kts 342°
2026-05-06 15:45 42.31027 19.90508 36087 ft 439 kts 342°
2026-05-06 15:46 42.36968 19.88608 36093 ft 439 kts 342°
2026-05-06 15:46 42.42910 19.86702 36090 ft 440 kts 342°
2026-05-06 15:47 42.48937 19.85142 36090 ft 445 kts 353°
2026-05-06 15:47 42.55183 19.85389 36078 ft 450 kts 359°
2026-05-06 15:48 42.61400 19.85867 36072 ft 451 kts 359°
2026-05-06 15:48 42.67657 19.86314 36075 ft 450 kts 359°
2026-05-06 15:49 42.73915 19.86721 36058 ft 450 kts 358°
2026-05-06 15:49 42.73982 19.86725 36058 ft 450 kts 358°
2026-05-06 15:50 42.78288 19.86996 36049 ft 450 kts 358°
2026-05-06 15:50 42.84505 19.87382 36045 ft 450 kts 358°
2026-05-06 15:51 42.90767 19.87774 36042 ft 450 kts 358°
2026-05-06 15:51 42.97016 19.88167 36034 ft 450 kts 358°
2026-05-06 15:52 43.03227 19.88558 36023 ft 449 kts 358°
2026-05-06 15:52 43.09474 19.88952 36017 ft 449 kts 358°
2026-05-06 15:53 43.15711 19.89348 36022 ft 448 kts 358°
2026-05-06 15:53 43.21946 19.89743 36007 ft 449 kts 358°
2026-05-06 15:54 43.28183 19.90139 36018 ft 449 kts 359°
2026-05-06 15:54 43.28211 19.90140 36017 ft 449 kts 359°
2026-05-06 15:55 43.31248 19.90333 36012 ft 449 kts 359°
2026-05-06 15:55 43.37487 19.90731 36001 ft 449 kts 359°
2026-05-06 15:56 43.43729 19.91130 36009 ft 449 kts 359°
2026-05-06 15:56 43.49938 19.91527 35985 ft 450 kts 359°
2026-05-06 15:57 43.56206 19.91929 35976 ft 451 kts 359°
2026-05-06 15:57 43.62478 19.92332 35976 ft 451 kts 359°
2026-05-06 15:58 43.68754 19.92736 35962 ft 452 kts 359°
2026-05-06 15:58 43.74990 19.93139 35958 ft 452 kts 359°
2026-05-06 15:59 43.81268 19.93545 35966 ft 451 kts 359°
2026-05-06 15:59 43.81279 19.93545 35966 ft 451 kts 359°
2026-05-06 16:00 43.85761 19.93836 35939 ft 452 kts 359°
2026-05-06 16:00 43.92036 19.94243 35959 ft 451 kts 359°
2026-05-06 16:01 43.98258 19.94648 35935 ft 451 kts 359°
2026-05-06 16:01 44.04531 19.95056 35942 ft 451 kts 359°
2026-05-06 16:02 44.10794 19.95466 35938 ft 451 kts 359°
2026-05-06 16:02 44.17058 19.95877 35910 ft 450 kts 359°
2026-05-06 16:03 44.23263 19.96282 35925 ft 450 kts 359°
2026-05-06 16:03 44.29515 19.96693 35934 ft 450 kts 359°
2026-05-06 16:04 44.35749 19.97104 35923 ft 450 kts 359°
2026-05-06 16:05 44.39832 19.97373 35933 ft 450 kts 359°
2026-05-06 16:05 44.46056 19.97785 35919 ft 451 kts 359°
2026-05-06 16:06 44.52314 19.98199 35918 ft 451 kts 359°
2026-05-06 16:06 44.58581 19.98615 35920 ft 450 kts 359°
2026-05-06 16:07 44.64845 19.99032 35918 ft 451 kts 358°
2026-05-06 16:07 44.71073 19.99447 35916 ft 452 kts 358°
2026-05-06 16:08 44.77359 19.99867 35916 ft 452 kts 358°
2026-05-06 16:08 44.83645 20.00288 35921 ft 452 kts 358°
2026-05-06 16:09 44.89850 20.00704 35913 ft 453 kts 358°
2026-05-06 16:10 44.94050 20.00987 35912 ft 452 kts 358°
2026-05-06 16:10 45.00332 20.01410 35921 ft 452 kts 358°
2026-05-06 16:11 45.06615 20.01834 35922 ft 452 kts 358°
2026-05-06 16:11 45.12860 20.02257 35917 ft 452 kts 358°
2026-05-06 16:12 45.19136 20.02682 35928 ft 451 kts 358°
2026-05-06 16:12 45.25409 20.03109 35924 ft 451 kts 358°
2026-05-06 16:13 45.31681 20.03535 35922 ft 451 kts 358°
2026-05-06 16:13 45.37963 20.03964 35918 ft 452 kts 358°
2026-05-06 16:14 45.44109 20.04385 35923 ft 452 kts 358°
2026-05-06 16:15 45.48240 20.04668 35918 ft 452 kts 358°
2026-05-06 16:15 45.54520 20.05099 35919 ft 452 kts 358°
2026-05-06 16:16 45.60801 20.05531 35926 ft 452 kts 358°
2026-05-06 16:16 45.67037 20.05961 35915 ft 452 kts 358°
2026-05-06 16:17 45.73310 20.06395 35916 ft 451 kts 358°
2026-05-06 16:17 45.79585 20.06830 35912 ft 451 kts 358°
2026-05-06 16:18 45.85847 20.07265 35911 ft 451 kts 358°
2026-05-06 16:18 45.92070 20.07697 35913 ft 451 kts 358°
2026-05-06 16:19 45.98209 20.08126 35909 ft 451 kts 358°
2026-05-06 16:20 46.02577 20.08431 35927 ft 451 kts 358°
2026-05-06 16:20 46.08804 20.08867 35908 ft 451 kts 358°
2026-05-06 16:21 46.15071 20.09152 35900 ft 447 kts 351°
2026-05-06 16:21 46.21042 20.07328 35923 ft 435 kts 336°
2026-05-06 16:22 46.25801 20.04947 35916 ft 435 kts 335°
2026-05-06 16:22 46.32441 20.01593 35909 ft 435 kts 336°
2026-05-06 16:23 46.38170 19.98744 35905 ft 435 kts 336°
2026-05-06 16:23 46.43904 19.95915 35906 ft 435 kts 336°
2026-05-06 16:24 46.48671 19.93564 35918 ft 435 kts 336°
2026-05-06 16:24 46.49476 19.93166 35919 ft 435 kts 336°
2026-05-06 16:25 46.53383 19.91236 35909 ft 435 kts 336°
2026-05-06 16:25 46.58145 19.88879 35906 ft 435 kts 336°
2026-05-06 16:26 46.63866 19.86040 35907 ft 434 kts 336°
2026-05-06 16:26 46.70509 19.82736 35920 ft 434 kts 336°
2026-05-06 16:27 46.75302 19.80346 35912 ft 434 kts 336°
2026-05-06 16:27 46.80977 19.77510 35913 ft 434 kts 336°
2026-05-06 16:28 46.86687 19.74651 35913 ft 434 kts 336°
2026-05-06 16:28 46.92398 19.71785 35915 ft 434 kts 336°
2026-05-06 16:29 46.98102 19.68916 35912 ft 434 kts 336°
2026-05-06 16:29 46.98869 19.68529 35897 ft 434 kts 336°
2026-05-06 16:30 47.00829 19.67542 35897 ft 434 kts 336°
2026-05-06 16:30 47.07464 19.64193 35891 ft 434 kts 335°
2026-05-06 16:31 47.13180 19.61300 35892 ft 435 kts 335°
2026-05-06 16:31 47.18866 19.58416 35887 ft 435 kts 335°
2026-05-06 16:32 47.24593 19.55505 35885 ft 436 kts 335°
2026-05-06 16:32 47.30325 19.52585 35885 ft 436 kts 335°
2026-05-06 16:33 47.36065 19.49653 35888 ft 437 kts 335°
2026-05-06 16:34 47.44655 19.45254 35889 ft 439 kts 335°
2026-05-06 16:34 47.48317 19.43374 35891 ft 439 kts 335°
2026-05-06 16:35 47.55011 19.39929 35891 ft 441 kts 335°
2026-05-06 16:36 47.59829 19.37445 35886 ft 442 kts 335°
2026-05-06 16:36 47.65651 19.34436 35896 ft 444 kts 335°
2026-05-06 16:37 47.71490 19.31411 35882 ft 445 kts 335°
2026-05-06 16:37 47.77334 19.28378 35879 ft 445 kts 335°
2026-05-06 16:38 47.83173 19.25338 35877 ft 445 kts 335°
2026-05-06 16:38 47.88979 19.22309 35871 ft 445 kts 335°
2026-05-06 16:39 47.94767 19.19286 35865 ft 429 kts 335°
2026-05-06 16:39 47.97541 19.17838 35858 ft 415 kts 335°
2026-05-06 16:39 47.98227 19.17479 35852 ft 412 kts 335°
2026-05-06 16:40 47.98444 19.17366 35852 ft 411 kts 335°
2026-05-06 16:40 48.01057 19.15997 35840 ft 397 kts 334°
2026-05-06 16:40 48.03627 19.14649 35853 ft 384 kts 334°
2026-05-06 16:40 48.05963 19.12945 35861 ft 368 kts 316°
2026-05-06 16:41 48.07752 19.10278 35891 ft 362 kts 302°
2026-05-06 16:41 48.10319 19.03765 35887 ft 368 kts 291°
2026-05-06 16:42 48.12569 18.96768 35885 ft 379 kts 291°
2026-05-06 16:42 48.14877 18.89606 35875 ft 390 kts 291°
2026-05-06 16:43 48.17280 18.82202 35874 ft 400 kts 292°
2026-05-06 16:43 48.19754 18.74581 35280 ft 414 kts 292°
2026-05-06 16:43 48.21010 18.70713 34803 ft 411 kts 292°
2026-05-06 16:44 48.22257 18.66871 34248 ft 409 kts 291°
2026-05-06 16:44 48.23498 18.63037 33681 ft 408 kts 291°
2026-05-06 16:44 48.23790 18.62133 33529 ft 408 kts 291°
2026-05-06 16:45 48.25016 18.58336 32906 ft 407 kts 291°
2026-05-06 16:45 48.26247 18.54515 32351 ft 406 kts 291°
2026-05-06 16:45 48.27468 18.50718 31797 ft 403 kts 291°
2026-05-06 16:46 48.28683 18.46934 31262 ft 401 kts 291°
2026-05-06 16:46 48.29903 18.43128 30742 ft 409 kts 291°
2026-05-06 16:46 48.31148 18.39233 30258 ft 418 kts 291°
2026-05-06 16:46 48.32429 18.35270 29726 ft 425 kts 294°
2026-05-06 16:47 48.33999 18.31470 29148 ft 431 kts 302°
2026-05-06 16:47 48.35935 18.28075 28583 ft 436 kts 308°
2026-05-06 16:47 48.38033 18.24769 28021 ft 437 kts 309°
2026-05-06 16:47 48.40144 18.21473 27469 ft 438 kts 309°
2026-05-06 16:48 48.42254 18.18167 26910 ft 438 kts 309°
2026-05-06 16:48 48.44360 18.14843 26381 ft 439 kts 309°
2026-05-06 16:48 48.46462 18.11503 25850 ft 439 kts 309°
2026-05-06 16:48 48.48563 18.08147 25334 ft 440 kts 309°
2026-05-06 16:49 48.50656 18.04792 24821 ft 440 kts 309°
2026-05-06 16:49 48.52754 18.01421 24309 ft 440 kts 309°
2026-05-06 16:49 48.53221 18.00670 24218 ft 440 kts 309°
2026-05-06 16:50 48.53244 18.00633 24214 ft 440 kts 309°
2026-05-06 16:50 48.55338 17.97263 23737 ft 437 kts 308°
2026-05-06 16:50 48.57398 17.93947 23249 ft 430 kts 308°
2026-05-06 16:50 48.59427 17.90676 22698 ft 423 kts 309°
2026-05-06 16:51 48.61425 17.87451 22155 ft 417 kts 308°
2026-05-06 16:51 48.63393 17.84269 21644 ft 412 kts 308°
2026-05-06 16:51 48.65339 17.81117 21122 ft 407 kts 308°
2026-05-06 16:51 48.67257 17.78006 20615 ft 402 kts 308°
2026-05-06 16:52 48.69132 17.74961 20121 ft 398 kts 308°
2026-05-06 16:52 48.71008 17.71910 19632 ft 395 kts 309°
2026-05-06 16:52 48.72872 17.68877 19146 ft 391 kts 309°
2026-05-06 16:52 48.74717 17.65870 18676 ft 388 kts 309°
2026-05-06 16:53 48.76548 17.62882 18210 ft 386 kts 309°
2026-05-06 16:53 48.78366 17.59914 17695 ft 383 kts 309°
2026-05-06 16:53 48.80173 17.56961 17160 ft 381 kts 309°
2026-05-06 16:53 48.81968 17.54025 16653 ft 378 kts 309°
2026-05-06 16:54 48.83790 17.51162 16135 ft 377 kts 311°
2026-05-06 16:54 48.85645 17.48426 15643 ft 375 kts 312°
2026-05-06 16:54 48.86059 17.47824 15533 ft 375 kts 312°
2026-05-06 16:55 48.86259 17.47533 15480 ft 375 kts 312°
2026-05-06 16:55 48.88100 17.44750 14985 ft 370 kts 307°
2026-05-06 16:55 48.89531 17.41557 14497 ft 363 kts 293°
2026-05-06 16:55 48.90512 17.38068 14075 ft 356 kts 288°
2026-05-06 16:56 48.91432 17.34599 13726 ft 352 kts 288°
2026-05-06 16:56 48.92348 17.31171 13340 ft 347 kts 288°
2026-05-06 16:56 48.93257 17.27796 12942 ft 343 kts 288°
2026-05-06 16:56 48.94147 17.24505 12561 ft 340 kts 288°
2026-05-06 16:57 48.95043 17.21204 12168 ft 336 kts 288°
2026-05-06 16:57 48.95933 17.17929 11789 ft 333 kts 288°
2026-05-06 16:57 48.96815 17.14681 11414 ft 330 kts 288°
2026-05-06 16:57 48.97689 17.11459 11053 ft 328 kts 288°
2026-05-06 16:58 48.98555 17.08267 10679 ft 326 kts 288°
2026-05-06 16:58 48.99415 17.05087 10320 ft 324 kts 288°
2026-05-06 16:58 49.00270 17.01924 9949 ft 322 kts 288°
2026-05-06 16:58 49.01118 16.98785 9579 ft 319 kts 289°
2026-05-06 16:59 49.01945 16.95722 9197 ft 310 kts 288°
2026-05-06 16:59 49.02753 16.92728 8833 ft 302 kts 288°
2026-05-06 16:59 49.03540 16.89808 8475 ft 294 kts 288°
2026-05-06 16:59 49.04309 16.86947 8097 ft 288 kts 288°
2026-05-06 17:00 49.05060 16.84146 7754 ft 283 kts 288°
2026-05-06 17:00 49.05750 16.81366 7388 ft 277 kts 279°
2026-05-06 17:00 49.06071 16.78516 7050 ft 270 kts 272°
2026-05-06 17:00 49.06273 16.75689 6706 ft 267 kts 271°
2026-05-06 17:01 49.06472 16.72884 6382 ft 265 kts 272°
2026-05-06 17:01 49.06691 16.70082 6103 ft 267 kts 272°
2026-05-06 17:01 49.06924 16.67276 5843 ft 267 kts 272°
2026-05-06 17:01 49.07159 16.64509 5588 ft 267 kts 272°
2026-05-06 17:02 49.07398 16.61716 5337 ft 266 kts 272°
2026-05-06 17:02 49.07639 16.58919 5087 ft 265 kts 272°
2026-05-06 17:02 49.07877 16.56136 4844 ft 263 kts 272°
2026-05-06 17:02 49.08111 16.53406 4600 ft 256 kts 271°
2026-05-06 17:03 49.08337 16.50765 4391 ft 248 kts 272°
2026-05-06 17:03 49.08555 16.48209 4267 ft 237 kts 271°
2026-05-06 17:03 49.08763 16.45766 4043 ft 228 kts 271°
2026-05-06 17:03 49.08962 16.43417 3878 ft 219 kts 271°
2026-05-06 17:04 49.09247 16.41153 3683 ft 222 kts 288°
2026-05-06 17:04 49.10286 16.39413 3526 ft 234 kts 329°
2026-05-06 17:04 49.11882 16.38972 3374 ft 237 kts
2026-05-06 17:04 49.13509 16.39314 3215 ft 235 kts
2026-05-06 17:05 49.15088 16.39720 3042 ft 224 kts 19°
2026-05-06 17:05 49.16353 16.40843 3029 ft 207 kts 50°
2026-05-06 17:05 49.16979 16.42751 3021 ft 198 kts 89°
2026-05-06 17:05 49.17052 16.44839 3013 ft 198 kts 96°
2026-05-06 17:06 49.17025 16.46919 2979 ft 194 kts 97°
2026-05-06 17:06 49.17139 16.48942 3007 ft 185 kts 101°
2026-05-06 17:06 49.16896 16.50923 2981 ft 193 kts 111°
2026-05-06 17:06 49.16617 16.52988 2730 ft 201 kts 105°
2026-05-06 17:07 49.16398 16.55026 2462 ft 186 kts 104°
2026-05-06 17:07 49.16219 16.56925 2188 ft 175 kts 104°
2026-05-06 17:07 49.16070 16.58643 1936 ft 159 kts 105°
2026-05-06 17:07 49.15931 16.60253 1791 ft 150 kts 107°
2026-05-06 17:08 49.15785 16.61834 1563 ft 152 kts 104°
2026-05-06 17:08 49.15637 16.63426 1352 ft 152 kts 102°
2026-05-06 17:08 49.15509 16.65034 1135 ft 152 kts 103°
2026-05-06 17:08 49.15370 16.66598 935 ft 147 kts 102°
2026-05-06 17:09 49.15248 16.68092 777 ft 138 kts 103°
2026-05-06 17:09 49.15150 16.69203 777 ft 66 kts 97°
2026-05-06 17:09 49.15113 16.69645 777 ft 19 kts 97°
2026-05-06 17:09 49.15102 16.69779 775 ft 7 kts 96°
2026-05-06 17:10 49.15131 16.69837 777 ft 8 kts 19°
2026-05-06 17:10 49.15182 16.69849 781 ft 5 kts
2026-05-06 17:10 49.15205 16.69854 781 ft 2 kts
2026-05-06 17:10 49.15210 16.69855 782 ft 1 kts
2026-05-06 17:11 49.15220 16.69857 782 ft 4 kts
2026-05-06 17:11 49.15267 16.69861 780 ft 8 kts 343°
2026-05-06 17:11 49.15288 16.69784 780 ft 10 kts 277°
2026-05-06 17:11 49.15298 16.69668 780 ft 11 kts 278°
2026-05-06 17:12 49.15309 16.69553 782 ft 10 kts 277°
2026-05-06 17:12 49.15317 16.69453 782 ft 9 kts 277°
2026-05-06 17:12 49.15329 16.69358 782 ft 9 kts 290°
2026-05-06 17:12 49.15362 16.69283 782 ft 6 kts 311°
2026-05-06 17:13 49.15384 16.69228 782 ft 6 kts 289°
2026-05-06 17:13 49.15391 16.69176 782 ft 3 kts 277°
2026-05-06 17:13 49.15392 16.69170 782 ft 0 kts 276°
2026-05-06 17:13 49.15392 16.69163 782 ft 2 kts 274°
2026-05-06 17:14 49.15385 16.69158 782 ft 1 kts 188°
2026-05-06 17:14 49.15382 16.69158 782 ft 0 kts 186°